User: anonymous   Login
Location: Betra
(48.4113°N, 8.6634°E)
Time: 16:43:57
(UTC+00:00)
Language:

ATLAS 2AS CENTAUR R/B - Orbit

View from above orbital plane
View from above orbital plane
View from above satellite
View from above satellite

Ground track
Ground track

The orbit data is extracted from the following two-line orbital elements,

1 28096U 03054B   24195.87388439 -.00000008  00000-0  13851-3 0  9998
2 28096  63.6802  10.6871 0115808 167.7080 192.6816 13.40978443  8102
Epoch (UTC): 13 July 2024 20:58:23
Eccentricity: 0.0115808
inclination: 63.6802°
perigee height: 1019 km
apogee height: 1192 km
right ascension of ascending node: 10.6871°
argument of perigee: 167.7080°
revolutions per day: 13.40978443
mean anomaly at epoch: 192.6816°
orbit number at epoch: 810

The dashed part of the orbit path shows where the satellite is in the earth's shadow,  

DLR